TimePDT,TemperatureF,Dew PointF,Humidity,Sea Level PressureIn,VisibilityMPH,Wind Direction,Wind SpeedMPH,Gust SpeedMPH,PrecipitationIn,Events,Conditions,WindDirDegrees,DateUTC
12:53 AM,59.0,52.0,78,29.97,10.0,Calm,Calm,-,N/A,,Clear,0,2013-08-21 07:53:00
1:53 AM,55.0,51.1,86,29.98,10.0,NNW,3.5,-,N/A,,Clear,330,2013-08-21 08:53:00
2:53 AM,54.0,50.0,86,29.99,10.0,North,4.6,-,N/A,,Clear,360,2013-08-21 09:53:00
3:53 AM,54.0,48.9,83,29.99,10.0,Calm,Calm,-,N/A,,Clear,0,2013-08-21 10:53:00
4:53 AM,51.1,46.9,86,29.99,10.0,North,4.6,-,N/A,,Clear,350,2013-08-21 11:53:00
5:53 AM,51.1,48.0,89,30.00,10.0,NNW,3.5,-,N/A,,Clear,340,2013-08-21 12:53:00
6:53 AM,53.1,48.0,83,30.01,10.0,North,6.9,-,N/A,,Clear,350,2013-08-21 13:53:00
7:53 AM,59.0,48.9,69,30.04,10.0,Calm,Calm,-,N/A,,Clear,0,2013-08-21 14:53:00
8:53 AM,64.9,52.0,63,30.04,10.0,NNW,3.5,-,N/A,,Clear,340,2013-08-21 15:53:00
9:53 AM,71.1,53.1,53,30.03,10.0,NNW,4.6,-,N/A,,Clear,340,2013-08-21 16:53:00
10:53 AM,75.0,50.0,41,30.03,10.0,NNW,8.1,-,N/A,,Clear,340,2013-08-21 17:53:00
11:53 AM,79.0,48.0,34,30.02,10.0,NNW,6.9,-,N/A,,Clear,340,2013-08-21 18:53:00
12:53 PM,82.0,46.9,29,30.00,10.0,NNW,6.9,-,N/A,,Clear,340,2013-08-21 19:53:00
1:53 PM,84.0,50.0,31,29.98,10.0,NNW,5.8,-,N/A,,Partly Cloudy,330,2013-08-21 20:53:00
2:53 PM,88.0,48.0,25,29.94,10.0,NW,6.9,-,N/A,,Clear,320,2013-08-21 21:53:00
3:53 PM,91.0,43.0,19,29.92,10.0,NW,6.9,-,N/A,,Clear,320,2013-08-21 22:53:00
4:53 PM,86.0,50.0,29,29.90,10.0,NNW,8.1,-,N/A,,Clear,330,2013-08-21 23:53:00
5:53 PM,84.9,52.0,32,29.89,10.0,NW,5.8,-,N/A,,Scattered Clouds,310,2013-08-22 00:53:00
6:53 PM,82.9,55.0,38,29.87,10.0,NW,4.6,-,N/A,,Clear,310,2013-08-22 01:53:00
7:53 PM,73.9,55.9,53,29.86,10.0,NNW,6.9,-,N/A,,Clear,340,2013-08-22 02:53:00
8:53 PM,71.1,55.0,57,29.88,10.0,NNW,4.6,-,N/A,,Clear,340,2013-08-22 03:53:00
9:53 PM,75.9,52.0,43,29.89,10.0,Calm,Calm,-,N/A,,Clear,0,2013-08-22 04:53:00
10:53 PM,72.0,52.0,49,29.88,10.0,NNE,4.6,-,N/A,,Clear,30,2013-08-22 05:53:00
11:53 PM,68.0,55.0,63,29.89,10.0,North,3.5,-,N/A,,Clear,360,2013-08-22 06:53:00